DO3HUM-5 Weather Reports


Display with metric or nautical units.
time (UTC)temp
F
wind
direction
speed
MPH
gust
MPH
rain 1hr
in
rain 24hr
in
rain mn
in
humidity
%
barometer
mb
20260503044548 48 0.0 0.0 0.00 0.00 0.00 82 1021.4
20260503043546 48 0.0 0.0 0.00 0.00 0.00 81 1021.3
20260503042541 48 0.0 0.0 0.00 0.00 0.00 80 1021.4
20260503041532 47 0.0 0.0 0.00 0.00 0.00 83 1021.4
20260503040531 47 0.0 0.0 0.00 0.00 0.00 83 1021.2
20260503035522 48 0.0 0.0 0.00 0.00 0.00 82 1021.2
20260503034520 48 0.0 0.0 0.00 0.00 0.00 83 1021.3
20260503033613 48 0.0 0.0 0.00 0.00 0.00 84 1021.1
20260503032608 48 0.0 0.0 0.00 0.00 0.00 81 1021.1
20260503031605 48 0.0 0.0 0.00 0.00 0.00 81 1021.2
20260503030558 48 0.0 0.0 0.00 0.00 0.00 81 1021.3
20260503025554 49 0.0 0.0 0.00 0.00 0.00 81 1021.5
20260503024543 47 0.0 0.0 0.00 0.00 0.00 84 1021.4
20260503023535 48 0.0 0.0 0.00 0.00 0.00 83 1021.4
20260503022532 47 0.0 0.0 0.00 0.00 0.00 83 1021.5
20260503021529 48 0.0 0.0 0.00 0.00 0.00 83 1021.5
20260503020523 48 0.0 0.0 0.00 0.00 0.00 83 1021.5
20260503015520 48 0.0 0.0 0.00 0.00 0.00 82 1021.5
20260503014610 48 0.0 0.0 0.00 0.00 0.00 83 1021.4
20260503013607 48 0.0 0.0 0.00 0.00 0.00 84 1021.4
20260503012559 48 0.0 0.0 0.00 0.00 0.00 84 1021.5
20260503011556 49 0.0 0.0 0.00 0.00 0.00 83 1021.6
20260503010553 49 0.0 0.0 0.00 0.00 0.00 83 1021.6
20260503005547 49 0.0 0.0 0.00 0.00 0.00 82 1021.6
20260503004542 50 0.0 0.0 0.00 0.00 0.00 81 1021.8
20260503003533 50 0.0 0.0 0.00 0.00 0.00 81 1021.8
20260503002531 50 0.0 0.0 0.00 0.00 0.00 80 1021.9
20260503001522 51 0.0 0.0 0.00 0.00 0.00 80 1022.0
20260503000520 51 0.0 0.0 0.00 0.00 0.00 79 1022.2
20260502235519 52 0.0 0.0 0.00 0.00 0.00 78 1022.1
20260502234609 51 0.0 0.0 0.00 0.00 0.00 79 1022.2
20260502233606 51 0.0 0.0 0.00 0.00 0.00 80 1022.1
20260502232558 51 0.0 0.0 0.00 0.00 0.00 80 1022.2
20260502231555 51 0.0 0.0 0.00 0.00 0.00 79 1022.3
20260502230547 52 0.0 0.0 0.00 0.00 0.00 79 1022.3
20260502225544 52 0.0 0.0 0.00 0.00 0.00 78 1022.3
20260502224543 53 0.0 0.0 0.00 0.00 0.00 77 1022.3
20260502223532 53 0.0 0.0 0.00 0.00 0.00 76 1022.4
20260502222530 53 0.0 0.0 0.00 0.00 0.00 75 1022.4
20260502221523 54 0.0 0.0 0.00 0.00 0.00 73 1022.4
20260502220521 55 0.0 0.0 0.00 0.00 0.00 73 1022.5
20260502215612 55 0.0 0.0 0.00 0.00 0.00 73 1022.5
20260502214608 55 0.0 0.0 0.00 0.00 0.00 73 1022.7
20260502213608 56 0.0 0.0 0.00 0.00 0.00 72 1022.6
20260502212556 56 0.0 0.0 0.00 0.00 0.00 70 1022.6
20260502211546 55 0.0 0.0 0.00 0.00 0.00 71 1022.8
20260502210543 55 0.0 0.0 0.00 0.00 0.00 72 1022.8
20260502205535 56 0.0 0.0 0.00 0.00 0.00 72 1022.9
20260502204524 57 0.0 0.0 0.00 0.00 0.00 70 1022.9
20260502203520 58 0.0 0.0 0.00 0.00 0.00 70 1023.1
20260502202519 58 0.0 0.0 0.00 0.00 0.00 70 1022.9
20260502201609 58 0.0 0.0 0.00 0.00 0.00 70 1023.0
20260502200608 59 0.0 0.0 0.00 0.00 0.00 70 1022.9
20260502195558 59 0.0 0.0 0.00 0.00 0.00 69 1023.1
20260502194557 60 0.0 0.0 0.00 0.00 0.00 68 1023.0
20260502193547 61 0.0 0.0 0.00 0.00 0.00 67 1023.0
20260502192546 62 0.0 0.0 0.00 0.00 0.00 66 1023.0
20260502191541 63 0.0 0.0 0.00 0.00 0.00 65 1023.0
20260502190533 64 0.0 0.0 0.00 0.00 0.00 62 1023.0
20260502185531 65 0.0 0.0 0.00 0.00 0.00 59 1023.1
20260502184523 66 0.0 0.0 0.00 0.00 0.00 57 1022.9
20260502183519 67 0.0 0.0 0.00 0.00 0.00 56 1022.9
20260502182611 68 0.0 0.0 0.00 0.00 0.00 53 1022.9
20260502181610 70 0.0 0.0 0.00 0.00 0.00 50 1022.9
20260502180607 71 0.0 0.0 0.00 0.00 0.00 48 1023.0
20260502163609 78 91 1.0 4.0 0.00 0.00 0.00 35 1023.6
20260502162606 78 136 2.0 4.0 0.00 0.00 0.00 33 1023.8
20260502161558 78 117 2.0 4.0 0.00 0.00 0.00 33 1023.9
20260502160557 78 100 2.0 4.0 0.00 0.00 0.00 33 1024.0
20260502151530 79 180 2.0 8.0 0.00 0.00 0.00 33 1024.5
20260502150522 79 96 1.0 4.0 0.00 0.00 0.00 35 1024.6
20260502130519 80 91 3.0 7.0 0.00 0.00 0.00 36 1026.5
20260502123559 79 134 3.0 11.0 0.00 0.00 0.00 36 1027.0
20260502122555 79 204 1.0 6.0 0.00 0.00 0.00 36 1027.2
20260502121546 79 118 2.0 8.0 0.00 0.00 0.00 37 1027.4
20260502120542 78 139 2.0 8.0 0.00 0.00 0.00 36 1027.6
20260502115534 78 116 3.0 8.0 0.00 0.00 0.00 37 1027.7
20260502114530 78 115 2.0 9.0 0.00 0.00 0.00 37 1028.0
20260502113521 78 82 2.0 4.0 0.00 0.00 0.00 37 1028.1
20260502112612 78 219 1.0 4.0 0.00 0.00 0.00 38 1028.1
20260502111608 76 126 2.0 6.0 0.00 0.00 0.00 39 1028.2
20260502110601 75 104 3.0 9.0 0.00 0.00 0.00 39 1028.4
20260502105556 74 123 3.0 11.0 0.00 0.00 0.00 41 1028.5
20260502104547 61 66 1.0 7.0 0.00 0.00 0.00 73 1028.6
20260502103545 58 88 3.0 6.0 0.00 0.00 0.00 91 1028.7
20260502102534 59 308 2.0 4.0 0.00 0.00 0.00 90 1029.0
20260502101530 76 119 2.0 7.0 0.00 0.00 0.00 39 1029.0
20260502100522 74 315 2.0 6.0 0.00 0.00 0.00 40 1029.2
20260502090544 72 289 1.0 6.0 0.00 0.00 0.00 46 1029.8
20260502071534 63 123 2.0 4.0 0.00 0.00 0.00 53 1030.4
20260502070530 62 83 1.0 4.0 0.00 0.00 0.00 54 1030.5
20260502065523 62 107 2.0 6.0 0.00 0.00 0.00 54 1030.5
20260502064518 61 158 2.0 4.0 0.00 0.00 0.00 56 1030.5
20260502063040 60 99 1.0 4.0 0.00 0.00 0.00 58 1030.7
20260502062040 58 0.0 2.0 0.00 0.00 0.00 60 1030.6
20260502061032 57 159 0.0 2.0 0.00 0.00 0.00 61 1030.5
20260502060030 57 265 1.0 2.0 0.00 0.00 0.00 63 1030.6
20260502055026 55 113 1.0 4.0 0.00 0.00 0.00 65 1030.6
20260502054025 53 90 1.0 4.0 0.00 0.00 0.00 68 1030.6
20260502053020 52 125 1.0 2.0 0.00 0.00 0.00 69 1030.6
20260502052018 51 166 1.0 4.0 0.00 0.00 0.00 71 1030.6
20260502051015 50 111 0.0 2.0 0.00 0.00 0.00 73 1030.7
20260502050114 47 0.0 2.0 0.00 0.00 0.00 80 1030.7
20260502045111 43 0.0 2.0 0.00 0.00 0.00 88 1030.7